sat.trackr.live / text

‹ back to catalog

STARLINK-32178

NORAD 60413 · 2024-141R

PAYLOAD ACTIVE UNKNOWN

§ Identity

Operator
Country
US
Launch date
2024-08-10
Launch site
AFETR
Launch vehicle
Mass (kg)
RCS (m²)

Purposes: comms

External: N2YO · Heavens-Above · Gunter

§ Orbital elements

Epoch: 2026-09-21T17:00:03.918816Z

Period
93.85 min
Inclination
53.1602°
Eccentricity
0.0001047
Mean motion
15.34385491 rev/d
Perigee alt
462.0 km
Apogee alt
463.5 km
Semi-major
6,840.9 km
B*
2.4239e-5
RAAN
47.7260°
Arg perigee
93.7363°
Mean anomaly
266.3759°
Rev number
11,959

§ Raw data

STARLINK-321781 60413U 24141R   26264.70837869  .00000443  00000+0  24239-4 0  99982 60413  53.1602  47.7260 0001047  93.7363 266.3759 15.34385491119598

JSON: /api/v1/satellites/60413 · /tle

For live sub-satellite position, see the globe view (requires WebGL).

§ Visibility from observer

Set your observer location to see the next 7 days of passes ≥ 10°. The values pass through the URL so the page stays shareable.

No JS? Fill the form by hand. The geolocation button needs JavaScript.